User: anonymous   Login
Location: Proctor
(47.8934°N, 114.3048°W)
Time: 00:55:54
(UTC+00:00)
Language:

Altair - Orbit

View from above orbital plane
View from above orbital plane
View from above satellite
View from above satellite

Ground track
Ground track

The orbit data is extracted from the following two-line orbital elements,

1 00050U 60009B   24164.30301871 -.00000014  00000-0  67233-3 0  9990
2 00050  47.2316 282.7341 0112936 344.5044  15.2301 12.20140847847979
Epoch (UTC): 12 June 2024 07:16:20
Eccentricity: 0.0112936
inclination: 47.2316°
perigee height: 1502 km
apogee height: 1682 km
right ascension of ascending node: 282.7341°
argument of perigee: 344.5044°
revolutions per day: 12.20140847
mean anomaly at epoch: 15.2301°
orbit number at epoch: 84797

The dashed part of the orbit path shows where the satellite is in the earth's shadow,  

DLR